• In United Kingdom
  • List of Countries
  • For 7 days
  • Water Temperature
  • Satellite Maps
  • Weather Map
  • Weather Widgets
  • user-avatar
    Login

    Hourly Weather Igls

    Today, 18 February, Sunday

    Time Temperature Precipitation Wind Pressure Humidity
    00:00 +1°C° 0.7 mm 2 mps 684 mmHg 97%
    01:00 +1°C° 0.7 mm 2 mps 684 mmHg 97%
    02:00 -1°C° 0.4 mm 2 mps 684 mmHg 97%
    03:00 -1°C° 0.4 mm 2 mps 684 mmHg 96%
    04:00 -2°C° 0.4 mm 2 mps 685 mmHg 96%
    05:00 -2°C° 0.2 mm 2 mps 685 mmHg 96%
    06:00 0°C° 0.2 mm 1 mps 685 mmHg 95%
    07:00 -1°C° 0.2 mm 1 mps 685 mmHg 95%
    08:00 0°C° 0.1 mm 1 mps 685 mmHg 93%
    09:00 0°C° 0.1 mm 1 mps 686 mmHg 92%
    10:00 +1°C° 0.1 mm 1 mps 686 mmHg 90%
    11:00 +1°C° 0.1 mm 2 mps 686 mmHg 90%
    12:00 +1°C° 0.1 mm 2 mps 686 mmHg 89%
    13:00 +2°C° 0.1 mm 2 mps 686 mmHg 89%
    14:00 +2°C° 0.2 mm 2 mps 686 mmHg 89%
    15:00 +1°C° 0.2 mm 2 mps 685 mmHg 90%
    16:00 +1°C° 0.2 mm 2 mps 685 mmHg 90%
    17:00 +1°C° 0.1 mm 1 mps 685 mmHg 92%
    18:00 0°C° 0.1 mm 1 mps 685 mmHg 94%
    19:00 0°C° 0.1 mm 1 mps 686 mmHg 95%
    20:00 -1°C° 0 mm 1 mps 685 mmHg 95%
    21:00 -2°C° 0 mm 1 mps 685 mmHg 94%
    22:00 -3°C° 0 mm 1 mps 685 mmHg 94%
    23:00 -3°C° 0 mm 1 mps 685 mmHg 93%

    Tomorrow, 19 February, Monday

    Time Temperature Precipitation Wind Pressure Humidity
    00:00 -3°C° 0 mm 1 mps 685 mmHg 92%
    01:00 -4°C° 0 mm 1 mps 684 mmHg 90%
    02:00 -4°C° 0 mm 1 mps 684 mmHg 90%
    03:00 -4°C° 0 mm 1 mps 684 mmHg 89%
    04:00 -6°C° 0 mm 1 mps 683 mmHg 88%
    05:00 -6°C° 0 mm 1 mps 683 mmHg 88%
    06:00 -6°C° 0 mm 1 mps 683 mmHg 87%
    07:00 -6°C° 0 mm 1 mps 683 mmHg 87%
    08:00 -3°C° 0 mm 1 mps 683 mmHg 83%
    09:00 -2°C° 0 mm 0 mps 683 mmHg 80%
    10:00 0°C° 0 mm 0 mps 683 mmHg 76%
    11:00 0°C° 0 mm 0 mps 683 mmHg 78%
    12:00 +2°C° 0 mm 1 mps 683 mmHg 80%
    13:00 +3°C° 0 mm 1 mps 682 mmHg 81%
    14:00 +2°C° 0.1 mm 1 mps 682 mmHg 84%
    15:00 +2°C° 0.1 mm 1 mps 682 mmHg 87%
    16:00 +2°C° 0.1 mm 1 mps 682 mmHg 89%
    17:00 +1°C° 0.2 mm 1 mps 682 mmHg 92%
    18:00 0°C° 0.2 mm 1 mps 682 mmHg 94%
    19:00 -1°C° 0.2 mm 1 mps 682 mmHg 96%
    20:00 -1°C° 0.1 mm 1 mps 682 mmHg 96%
    21:00 -2°C° 0.1 mm 1 mps 682 mmHg 96%
    22:00 -2°C° 0.1 mm 1 mps 682 mmHg 95%
    23:00 -3°C° 0 mm 1 mps 682 mmHg 95%

    Day after tomorrow, 20 February, Tuesday

    Time Temperature Precipitation Wind Pressure Humidity
    00:00 -4°C° 0 mm 1 mps 681 mmHg 95%
    01:00 -4°C° 0 mm 1 mps 681 mmHg 95%
    02:00 -6°C° 0 mm 1 mps 681 mmHg 94%
    03:00 -6°C° 0 mm 1 mps 680 mmHg 93%
    04:00 -7°C° 0 mm 1 mps 680 mmHg 92%
    05:00 -7°C° 0 mm 1 mps 680 mmHg 92%
    06:00 -7°C° 0 mm 1 mps 679 mmHg 91%
    07:00 -8°C° 0 mm 1 mps 679 mmHg 90%
    08:00 -4°C° 0 mm 1 mps 679 mmHg 85%
    09:00 -2°C° 0 mm 1 mps 679 mmHg 80%
    10:00 0°C° 0 mm 1 mps 679 mmHg 76%
    11:00 +1°C° 0 mm 1 mps 679 mmHg 74%
    12:00 +1°C° 0 mm 1 mps 679 mmHg 73%
    13:00 +2°C° 0 mm 1 mps 678 mmHg 71%
    14:00 +1°C° 0 mm 2 mps 678 mmHg 75%
    15:00 +1°C° 0 mm 2 mps 678 mmHg 78%
    16:00 -1°C° 0 mm 2 mps 677 mmHg 82%
    17:00 -2°C° 0.1 mm 2 mps 677 mmHg 86%
    18:00 -1°C° 0.1 mm 1 mps 677 mmHg 90%
    19:00 -2°C° 0.1 mm 1 mps 677 mmHg 94%
    20:00 -3°C° 0.1 mm 1 mps 678 mmHg 94%
    21:00 -3°C° 0.1 mm 1 mps 678 mmHg 93%
    22:00 -3°C° 0.1 mm 1 mps 678 mmHg 93%
    23:00 -3°C° 0.1 mm 1 mps 678 mmHg 92%

    21 February, Wednesday

    Time Temperature Precipitation Wind Pressure Humidity
    00:00 -4°C° 0.1 mm 1 mps 678 mmHg 92%
    01:00 -4°C° 0.1 mm 1 mps 678 mmHg 91%
    02:00 -6°C° 0.1 mm 1 mps 678 mmHg 91%
    03:00 -6°C° 0.1 mm 1 mps 678 mmHg 91%
    04:00 -6°C° 0.1 mm 1 mps 678 mmHg 91%
    05:00 -7°C° 0 mm 1 mps 678 mmHg 92%
    06:00 -7°C° 0 mm 1 mps 678 mmHg 92%
    07:00 -8°C° 0 mm 1 mps 678 mmHg 93%
    08:00 -6°C° 0.1 mm 1 mps 678 mmHg 90%
    09:00 -4°C° 0.1 mm 1 mps 678 mmHg 88%
    10:00 -2°C° 0.1 mm 1 mps 679 mmHg 86%
    11:00 -4°C° 0.1 mm 2 mps 678 mmHg 86%
    12:00 -3°C° 0.1 mm 2 mps 678 mmHg 85%
    13:00 -2°C° 0.1 mm 2 mps 678 mmHg 84%
    14:00 -2°C° 0.2 mm 2 mps 678 mmHg 86%
    15:00 -2°C° 0.2 mm 2 mps 677 mmHg 87%
    16:00 -2°C° 0.2 mm 2 mps 677 mmHg 88%
    17:00 -3°C° 0.2 mm 2 mps 677 mmHg 90%
    18:00 -4°C° 0.2 mm 2 mps 678 mmHg 92%
    19:00 -5°C° 0.2 mm 2 mps 678 mmHg 95%
    20:00 -5°C° 0.2 mm 2 mps 678 mmHg 95%
    21:00 -6°C° 0.2 mm 2 mps 678 mmHg 95%
    22:00 -6°C° 0.2 mm 2 mps 678 mmHg 95%
    23:00 -4°C° 0.1 mm 1 mps 678 mmHg 94%

    22 February, Thursday

    Time Temperature Precipitation Wind Pressure Humidity
    00:00 -4°C° 0.1 mm 1 mps 678 mmHg 94%
    01:00 -6°C° 0.1 mm 1 mps 678 mmHg 94%
    02:00 -6°C° 0.1 mm 1 mps 677 mmHg 93%
    03:00 -6°C° 0.1 mm 1 mps 677 mmHg 93%
    04:00 -6°C° 0.1 mm 1 mps 677 mmHg 92%
    05:00 -7°C° 0 mm 1 mps 677 mmHg 92%
    06:00 -7°C° 0 mm 1 mps 677 mmHg 92%
    07:00 -7°C° 0 mm 1 mps 677 mmHg 91%
    08:00 -6°C° 0 mm 1 mps 677 mmHg 89%
    09:00 -3°C° 0 mm 1 mps 677 mmHg 86%
    10:00 -1°C° 0 mm 1 mps 677 mmHg 83%
    11:00 -2°C° 0 mm 2 mps 677 mmHg 84%
    12:00 -1°C° 0 mm 2 mps 677 mmHg 84%
    13:00 -1°C° 0 mm 2 mps 677 mmHg 84%
    14:00 -1°C° 0.1 mm 2 mps 676 mmHg 86%
    15:00 -1°C° 0.1 mm 2 mps 676 mmHg 87%
    16:00 -1°C° 0.1 mm 2 mps 676 mmHg 88%
    17:00 -2°C° 0.1 mm 2 mps 677 mmHg 90%
    18:00 -3°C° 0.1 mm 2 mps 677 mmHg 92%
    19:00 -4°C° 0.1 mm 2 mps 677 mmHg 94%
    20:00 -2°C° 0.1 mm 1 mps 677 mmHg 94%
    21:00 -3°C° 0.1 mm 1 mps 677 mmHg 94%
    22:00 -3°C° 0.1 mm 1 mps 678 mmHg 94%
    23:00 -4°C° 0.1 mm 1 mps 678 mmHg 93%

    23 February, Friday

    Time Temperature Precipitation Wind Pressure Humidity
    00:00 -4°C° 0.1 mm 1 mps 678 mmHg 93%
    01:00 -6°C° 0.1 mm 1 mps 678 mmHg 93%
    02:00 -6°C° 0 mm 1 mps 678 mmHg 93%
    03:00 -6°C° 0 mm 1 mps 677 mmHg 93%
    04:00 -6°C° 0 mm 1 mps 677 mmHg 93%
    05:00 -7°C° 0 mm 1 mps 678 mmHg 93%
    06:00 -7°C° 0 mm 1 mps 678 mmHg 93%
    07:00 -7°C° 0 mm 1 mps 678 mmHg 93%
    08:00 -4°C° 0 mm 1 mps 678 mmHg 91%
    09:00 -3°C° 0 mm 1 mps 679 mmHg 89%
    10:00 -3°C° 0 mm 2 mps 679 mmHg 87%
    11:00 -2°C° 0 mm 2 mps 679 mmHg 87%
    12:00 -1°C° 0 mm 2 mps 679 mmHg 87%
    13:00 -1°C° 0 mm 2 mps 679 mmHg 87%
    14:00 -1°C° 0.1 mm 2 mps 679 mmHg 87%
    15:00 -1°C° 0.1 mm 2 mps 679 mmHg 87%
    16:00 -1°C° 0.1 mm 2 mps 679 mmHg 87%
    17:00 -3°C° 0.1 mm 2 mps 679 mmHg 89%
    18:00 -4°C° 0.1 mm 2 mps 679 mmHg 91%
    19:00 -4°C° 0.1 mm 1 mps 680 mmHg 94%
    20:00 -6°C° 0 mm 1 mps 680 mmHg 93%
    21:00 -7°C° 0 mm 1 mps 680 mmHg 92%
    22:00 -8°C° 0 mm 1 mps 681 mmHg 92%
    23:00 -8°C° 0 mm 1 mps 681 mmHg 88%
    Show more